Location: Unspecified
(41.1637°N, 24.2901°E)
Time: 14:27:45
(UTC+02:00)

ISS - Pass Details

Date: 30 June 2022
Orbit: 414 x 420 km, 51.6° (Epoch: 05 July)

Event Time Altitude Azimuth Distance (km) Brightness Sun altitude
Exits shadow 02:35:45 56° 145° (SE) 499 -3.6 -19.0°
Maximum altitude 02:35:48 57° 140° (SE) 498 -3.6 -19.0°
Drops below altitude 10° 02:39:06 10° 61° (ENE) 1,499 -0.1 -18.7°
Sets 02:41:14 0° 57° (ENE) 2,367 1.2 -18.5°
